FW9205 Weather Reports


time (UTC)temp
C
wind
direction
speed
KPH
gust
KPH
rain 1hr
cm
rain 24hr
cm
rain mn
cm
humidity
%
barometer
mb
20260507201005 14 142 16.1 30.6 0.00 0.00 0.00 92 1000.5
20260507195943 13 153 17.7 25.7 0.00 0.00 0.00 94 1000.6
20260507194943 11 236 17.7 25.7 0.00 0.00 0.00 93 1001.1
20260507193940 13 137 17.7 27.4 0.00 0.00 0.00 94 1000.7
20260507192956 12 191 16.1 24.1 0.00 0.00 0.00 94 1000.4
20260507191955 12 140 19.3 27.4 0.00 0.00 0.00 94 1000.4
20260507190503 12 121 30.6 45.1 0.00 0.00 0.00 94 998.7
20260507185700 16 143 25.7 43.5 0.00 0.00 0.00 81 1003.2
20260507140453 15 165 40.2 61.2 0.00 0.00 0.00 81 1004.0
20260507135439 15 200 37.0 61.2 0.00 0.00 0.00 81 1004.0
20260507134454 15 176 45.1 70.8 0.00 0.00 0.00 81 1004.0
20260507132944 15 186 46.7 72.4 0.00 0.00 0.00 81 1004.1
20260507131948 15 169 38.6 75.6 0.00 0.00 0.00 80 1004.6
20260507130944 15 157 51.5 74.0 0.00 0.00 0.00 78 1004.4
20260507125956 15 177 45.1 72.4 0.00 0.00 0.00 78 1004.1
20260507124932 15 170 41.8 75.6 0.00 0.00 0.00 79 1004.1
20260507123944 15 173 43.5 72.4 0.00 0.00 0.00 79 1004.0
20260507122937 15 177 43.5 69.2 0.00 0.00 0.00 78 1004.9
20260507121953 15 181 53.1 67.6 0.00 0.00 0.00 77 1004.6
20260507120952 15 201 53.1 70.8 0.00 0.00 0.00 77 1004.7
20260507115956 15 183 46.7 70.8 0.00 0.00 0.00 77 1004.9
20260507114948 15 196 56.3 74.0 0.00 0.00 0.00 77 1004.4
20260507113949 15 181 46.7 66.0 0.00 0.00 0.00 78 1005.0
20260507112951 16 185 46.7 67.6 0.00 0.00 0.00 77 1004.8
20260507111954 16 161 41.8 75.6 0.00 0.00 0.00 78 1004.9
20260507110956 15 163 40.2 62.8 0.00 0.00 0.00 78 1005.3
20260507105948 15 152 38.6 74.0 0.00 0.00 0.00 79 1005.7
20260507104959 14 176 40.2 57.9 0.00 0.00 0.00 80 1005.7
20260507103952 14 162 43.5 61.2 0.00 0.00 0.00 81 1005.5
20260507103420 14 193 40.2 61.2 0.00 0.00 0.00 81 1005.8
20260507102438 14 146 38.6 56.3 0.00 0.00 0.00 81 1006.1
20260507101934 14 188 38.6 61.2 0.00 0.00 0.00 81 1006.0
20260507100952 13 192 41.8 62.8 0.00 0.00 0.00 81 1006.3
20260507095948 13 177 38.6 51.5 0.00 0.00 0.00 81 1006.4
20260507094955 13 179 32.2 53.1 0.00 0.00 0.00 80 1006.4
20260507093926 13 163 35.4 54.7 0.00 0.00 0.00 79 1006.5
20260507093425 13 164 30.6 48.3 0.00 0.00 0.00 79 1006.4
20260507092925 13 150 29.0 49.9 0.00 0.00 0.00 79 1006.7
20260507092419 13 161 29.0 49.9 0.00 0.00 0.00 78 1006.9
20260507091917 13 166 24.1 49.9 0.00 0.00 0.00 78 1007.2
20260507090943 13 182 29.0 49.9 0.00 0.00 0.00 76 1007.4
20260507085952 13 153 22.5 45.1 0.00 0.00 0.00 76 1007.3
20260507084941 13 153 29.0 43.5 0.00 0.00 0.00 77 1007.4
20260507083920 13 174 29.0 48.3 0.00 0.00 0.00 76 1007.2
20260507082920 13 178 27.4 45.1 0.00 0.00 0.00 77 1007.9
20260507081929 13 161 27.4 41.8 0.00 0.00 0.00 78 1008.1
20260507080932 13 154 22.5 43.5 0.00 0.00 0.00 78 1008.7
20260507080427 13 181 27.4 43.5 0.00 0.00 0.00 78 1009.2
20260507075924 13 144 29.0 40.2 0.00 0.00 0.00 78 1008.8
20260507074939 12 162 25.7 41.8 0.00 0.00 0.00 78 1008.9
20260507073930 12 167 27.4 46.7 0.00 0.00 0.00 78 1009.0
20260507072919 12 135 27.4 41.8 0.00 0.00 0.00 78 1009.2
20260507072003 13 177 29.0 43.5 0.00 0.00 0.00 76 1009.3
20260507071416 13 178 29.0 40.2 0.00 0.00 0.00 76 1009.4
20260507070433 13 159 22.5 41.8 0.00 0.00 0.00 76 1009.1
20260507065901 13 174 32.2 41.8 0.00 0.00 0.00 76 1009.2
20260507064933 13 157 25.7 40.2 0.00 0.00 0.00 75 1009.5
20260507064409 13 160 25.7 48.3 0.00 0.00 0.00 75 1009.9
20260507063415 13 163 30.6 46.7 0.00 0.00 0.00 74 1010.4
20260507062903 13 158 25.7 46.7 0.00 0.00 0.00 74 1010.6
20260507061920 13 175 30.6 46.7 0.00 0.00 0.00 72 1010.6
20260507060927 13 175 32.2 48.3 0.00 0.00 0.00 72 1010.9
20260507055859 13 188 30.6 41.8 0.00 0.00 0.00 69 1011.0
20260507055116 13 179 27.4 41.8 0.00 0.00 0.00 71 1011.3
20260507053912 13 191 25.7 38.6 0.00 0.00 0.00 71 1011.5
20260507052937 13 185 24.1 41.8 0.00 0.00 0.00 72 1011.0
20260507052359 13 173 24.1 43.5 0.00 0.00 0.00 72 1011.0
20260507051404 13 179 30.6 45.1 0.00 0.00 0.00 71 1011.1
20260507050410 13 155 29.0 45.1 0.00 0.00 0.00 72 1011.0
20260507045907 13 173 29.0 45.1 0.00 0.00 0.00 73 1011.1
20260507044935 13 163 29.0 43.5 0.00 0.00 0.00 74 1011.4
20260507043919 13 159 27.4 45.1 0.00 0.00 0.00 74 1011.8
20260507042934 13 161 24.1 37.0 0.00 0.00 0.00 74 1012.2
20260507041934 14 173 29.0 40.2 0.00 0.00 0.00 73 1012.2
20260507040932 15 184 29.0 41.8 0.00 0.00 0.00 72 1012.8
20260507040407 15 185 24.1 43.5 0.00 0.00 0.00 72 1012.9
20260507035415 15 167 27.4 45.1 0.00 0.00 0.00 72 1012.9
20260507034913 15 188 30.6 38.6 0.00 0.00 0.00 72 1012.9
20260507034410 15 167 27.4 38.6 0.00 0.00 0.00 72 1013.1
20260507033416 15 188 29.0 48.3 0.00 0.00 0.00 73 1013.0
20260507032426 15 173 27.4 43.5 0.00 0.00 0.00 72 1013.3
20260507030921 15 150 30.6 48.3 0.00 0.00 0.00 73 1013.7
20260507030123 15 175 32.2 48.3 0.00 0.00 0.00 72 1014.1
20260507025428 15 154 30.6 41.8 0.00 0.00 0.00 71 1014.1
20260507024910 15 174 30.6 41.8 0.00 0.00 0.00 71 1014.4
20260507024409 15 197 30.6 41.8 0.00 0.00 0.00 71 1014.5
20260507023430 15 177 25.7 41.8 0.00 0.00 0.00 71 1014.7
20260507022441 15 166 24.1 37.0 0.00 0.00 0.00 71 1014.9
20260507021926 15 202 24.1 35.4 0.00 0.00 0.00 71 1015.0
20260507020936 15 192 27.4 41.8 0.00 0.00 0.00 71 1015.1
20260507015919 15 207 20.9 40.2 0.00 0.00 0.00 72 1015.2
20260507014929 15 176 25.7 41.8 0.00 0.00 0.00 73 1015.1
20260507013919 15 182 27.4 33.8 0.00 0.00 0.00 72 1015.4
20260507013414 15 165 24.1 38.6 0.00 0.00 0.00 73 1015.5
20260507012444 15 199 24.1 45.1 0.00 0.00 0.00 72 1015.5
20260507011930 15 184 32.2 46.7 0.00 0.00 0.00 72 1015.5
20260507010954 15 236 29.0 45.1 0.00 0.00 0.00 72 1015.6
20260507010426 15 212 25.7 41.8 0.00 0.00 0.00 73 1015.5
20260507005444 15 198 24.1 33.8 0.00 0.00 0.00 73 1015.5
20260507004932 15 223 22.5 41.8 0.00 0.00 0.00 73 1015.4
20260507004146 15 196 27.4 43.5 0.00 0.00 0.00 73 1015.1
20260507002959 15 185 27.4 53.1 0.00 0.00 0.00 73 1015.2
20260507002432 15 202 30.6 53.1 0.00 0.00 0.00 72 1015.1
20260507001440 15 199 27.4 41.8 0.00 0.00 0.00 73 1015.1
20260506235953 15 212 30.6 49.9 0.00 0.00 0.00 72 1014.8
20260506235424 15 202 30.6 53.1 0.00 0.00 0.00 73 1014.9
20260506234622 15 195 37.0 48.3 0.00 0.00 0.00 72 1014.7
20260506233922 16 174 33.8 46.7 0.00 0.00 0.00 72 1014.9
20260506232935 16 188 30.6 40.2 0.00 0.00 0.00 73 1015.1
20260506231939 16 170 29.0 43.5 0.00 0.00 0.00 72 1014.8
20260506230958 16 207 37.0 54.7 0.00 0.00 0.00 72 1014.7
20260506230418 16 196 38.6 59.5 0.00 0.00 0.00 72 1014.7
20260506225430 16 252 40.2 54.7 0.00 0.00 0.00 73 1014.4
20260506224924 16 196 38.6 56.3 0.00 0.00 0.00 72 1014.6
20260506223937 16 196 37.0 57.9 0.00 0.00 0.00 72 1014.4
20260506222928 16 195 40.2 56.3 0.00 0.00 0.00 72 1014.2
20260506221929 17 191 38.6 53.1 0.00 0.00 0.00 71 1014.5
20260506220948 17 185 38.6 56.3 0.00 0.00 0.00 71 1014.2
20260506215949 17 193 35.4 59.5 0.00 0.00 0.00 70 1014.4
20260506214438 17 177 33.8 57.9 0.00 0.00 0.00 68 1014.2
20260506213450 17 174 35.4 51.5 0.00 0.00 0.00 68 1014.4
20260506212454 17 221 30.6 49.9 0.00 0.00 0.00 68 1014.6
20260506211449 17 212 35.4 51.5 0.00 0.00 0.00 67 1014.6
20260506210441 17 203 29.0 41.8 0.00 0.00 0.00 66 1014.6
20260506205442 17 207 22.5 38.6 0.00 0.00 0.00 66 1014.7
20260506204444 18 177 29.0 49.9 0.00 0.00 0.00 64 1014.6
20260506203913 18 221 35.4 49.9 0.00 0.00 0.00 62 1014.7
20260506202948 18 217 33.8 51.5 0.00 0.00 0.00 64 1014.3
20260506201951 18 193 32.2 51.5 0.00 0.00 0.00 63 1014.4